User: anonymous   Login
Location: Antin
(43.3330°N, 0.2804°E)
Time: 16:15:03
(UTC+00:00)
Language:

Cosmos 1605 Rocket - Orbit

View from above orbital plane
View from above orbital plane
View from above satellite
View from above satellite

Ground track
Ground track

The orbit data is extracted from the following two-line orbital elements,

1 15360U 84109B   22018.89374551  .00000130  00000-0  11538-3 0  9997
2 15360  82.9381 242.7288 0042271  44.7099 315.7453 13.76785642872037
Epoch (UTC): 18 January 2022 21:26:59
Eccentricity: 0.0042271
inclination: 82.9381°
perigee height: 944 km
apogee height: 1006 km
right ascension of ascending node: 242.7288°
argument of perigee: 44.7099°
revolutions per day: 13.76785642
mean anomaly at epoch: 315.7453°
orbit number at epoch: 87203

The dashed part of the orbit path shows where the satellite is in the earth's shadow,  

DLR